Location: Newark
(28.1667°N, 17.3333°W)
Time: 02:24:37
(UTC+00:00)

Envisat - Visible Passes

Search period start: 21 May 2019 00:00
Search period end: 31 May 2019 00:00
Orbit: 764 x 766 km, 98.2° (Epoch: 19 May)

Date Brightness Start Highest point End Pass type
(mag) Time Alt. Az. Time Alt. Az. Time Alt. Az.
22 May 5.6 20:52:33 10° SW 20:55:54 18° W 20:59:17 10° NW visible
23 May 4.2 20:14:11 10° S 20:19:00 45° W 20:23:52 10° NNW visible
25 May 5.3 20:40:38 10° SSW 20:44:37 23° W 20:48:38 10° NW visible
27 May 5.9 21:08:32 10° WSW 21:10:18 12° W 21:12:05 10° WNW visible
28 May 4.9 20:28:55 10° SSW 20:33:20 30° W 20:37:48 10° NW visible
30 May 5.7 20:55:58 10° SW 20:58:59 16° W 21:02:02 10° WNW visible
